www.pogodaiklimat.ru

Погода и климат >> Архив погоды >> Нигер >> Zinder


ПОГОДА в Zinder

  • Прогноз погоды в Zinder
  • Монитор погоды в Zinder
  • Климат города

АРХИВ ПОГОДЫ в Zinder

Время (UTC), дата Ветер
(напр.,м/с)
 
Видим.   Явления Облачность Т
(С)
Тd
(С)
f
(%)
Тe
(С)
Тes
(С)
Комфортность P
(гПа)
Po
(гПа)
Тmin
(С)
Tmax
(С)
R
(мм)
R24
(мм)
S
(см)
06 12.02 С 8 10 км 8/0
[Cs]
+19.5 -4.2 20 +18 +18 1009.9 959.5 +19.3
09 12.02 С 10 10 км 6/0
[Ci sp]
+24.5 -8.0 11 +22 +23 комфорт 1011.7 961.3
12 12.02 С 6 10 км 6/0
[Ci sp]
+30.0 -8.0 8 +26 +32 жарко 1009.6 959.6
15 12.02 С 4 10 км 6/0
[Ci sp]
+32.0 -10.8 6 +28 +31 жарко 1008.4 958.3
18 12.02 С 4 10 км 6/0
[Ci sp]
+29.0 -3.8 12 +26 +26 жарко 1009.7 959.1 +32.5
21 12.02 С 8 10 км 9/0
[Cs]
+26.0 -14.2 6 +22 +22 комфорт 1011.4 960.9
03 13.02 СВ 10 10 км 9/0
[Cs]
+21.0 -8.0 13 +20 +20 1010.7 960.4
06 13.02 СВ 10 8000 м пыль 6/0
[Cs]
+19.0 -8.0 15 +18 +18 1012.6 961.9 +18.9
09 13.02 СВ 14 4000 м пыльный позёмок 9/0
[Cs]
+22.5 -10.5 10 +20 +20 1014.4 963.5
12 13.02 СВ 12 8000 м пыль 9/0
[Cs]
+27.5 -9.1 8 +24 +24 комфорт 1012.2 961.5
15 13.02 СВ 6 10 км 9/0
[Cs]
+30.3 -9.9 7 +26 +28 жарко 1009.9 959.6
18 13.02 СВ 8 10 км 9/0
[Cs]
+28.0 -5.9 10 +25 +25 комфорт 1011.0 960.2 +30.6
21 13.02 СВ 8 10 км 9/0
[Cs]
+24.0 -9.8 10 +22 +22 комфорт 1013.1 962.2
03 14.02 СВ 4 10 км 9/0
[Cs]
+19.5 -7.4 15 +19 +19 1011.2 960.6
06 14.02 СВ 4 10 км 9/0
[Cs]
+18.0 -6.1 19 +18 +18 1012.2 961.3 +17.6
09 14.02 С 12 10 км 9/0
[Cs]
+23.3 -9.7 10 +21 +21 комфорт 1014.3 963.4
12 14.02 СВ 8 10 км 9/0
[Cs]
+28.7 -10.8 7 +25 +27 комфорт 1011.7 961.1
15 14.02 С 6 10 км 6/0
[Ci sp]
+32.0 -7.7 7 +28 +30 жарко 1009.2 958.9
18 14.02 СВ 4 10 км 6/0
[Ci sp]
+29.0 -1.4 14 +26 +26 жарко 1010.0 959.3 +32.0
21 14.02 СВ 4 10 км 6/0
[Ci sp]
+24.5 +0.3 20 +23 +23 комфорт 1012.2 961.5
03 15.02 С 8 10 км 9/0
[Cs]
+21.7 -7.9 13 +20 +20 1010.7 960.5
06 15.02 С 4 10 км 9/0
[Cs]
+19.5 -5.1 18 +19 +19 1011.7 961.0 +19.0
09 15.02 СВ 10 8000 м пыль 9/0
[Cs]
+25.0 -8.0 11 +22 +23 комфорт 1013.8 963.0
12 15.02 СВ 8 6000 м пыль 9/0
[Cs]
+30.5 -7.7 8 +27 +29 жарко 1011.5 961.3
15 15.02 СВ 8 6000 м пыль 9/0
[Cs]
+32.4 -9.7 6 +28 +29 жарко 1009.4 959.3
18 15.02 СВ 6 6000 м пыль 9/0
[Cs]
+29.6 -7.7 8 +26 +26 жарко 1010.2 959.7 +32.5
21 15.02 С 8 6000 м пыль 9/0
[Cs]
+25.5 -6.5 12 +23 +23 комфорт 1012.7 962.1
03 16.02 С 10 6000 м пыль 9/0
[Cs]
+21.6 -8.0 13 +20 +20 1012.0 961.8
06 16.02 СВ 4 8000 м пыль 9/0
[Cs]
+19.2 -8.4 15 +19 +19 1013.2 962.5 +19.0
09 16.02 СВ 12 10 км 9/0
[Cs]
+24.0 -14.9 6 +21 +21 комфорт 1014.6 963.9
12 16.02 С 12 10 км 9/0
[Cs]
+29.0 -18.5 4 +25 +25 комфорт 1012.4 961.9
15 16.02 СВ 10 10 км 6/0
[Ci sp]
+30.7 -17.6 3 +26 +26 жарко 1010.1 959.8
18 16.02 С 8 10 км 9/0
[Cs]
+27.8 -17.8 4 +24 +24 комфорт 1011.0 960.3 +32.5
21 16.02 С 12 10 км 9/0
[Cs]
+23.6 -17.1 6 +21 +21 комфорт 1012.9 962.1
03 17.02 С 4 10 км 9/0
[Cs]
+18.0 -6.1 19 +18 +18 1011.8 961.1
06 17.02 СВ 10 6000 м пыль 9/0
[Cs]
+17.0 -10.7 14 +16 +16 1012.8 961.7 +16.6
09 17.02 СВ 16 2000 м пыльный позёмок 9/0
[Cs]
+23.9 -9.5 10 +21 +21 комфорт 1013.6 962.7
12 17.02 В 14 1800 м пыльный позёмок 9/0
[Cs]
+28.8 -13.8 5 +25 +25 комфорт 1010.9 960.3
15 17.02 В 8 2500 м пыль 9/0
[Cs]
+30.5 -8.0 8 +27 +27 жарко 1009.1 958.6
18 17.02 СВ 4 2500 м пыль 9/0
[Cs]
+27.7 -6.3 10 +24 +24 комфорт 1009.9 959.0 +31.0
21 17.02 С 4 3000 м пыль 9/0
[Cs]
+23.8 -9.1 10 +21 +21 комфорт 1011.7 961.0
03 18.02 СВ 8 2000 м пыль 9/0
[Cs]
+21.2 -9.5 12 +20 +20 1010.2 959.9
06 18.02 СВ 8 400 м пыль {туман} 9/0
[Cs]
+20.0 -6.6 16 +19 +19 1012.1 961.3 +19.6
09 18.02 В 12 300 м пыль {туман} 9/0
[Cs]
+23.5 -5.9 14 +22 +22 комфорт 1013.7 962.2
12 18.02 В 8 600 м пыль {туман} 9/0
[Cs]
+29.8 +25 +27 комфорт 1009.7 959.4
15 18.02 В 6 1000 м пыль 9/0
[Cs]
+31.5 -7.0 8 +27 +29 жарко 1008.1 958.0
18 18.02 СВ 6 1200 м пыль 9/0
[Cs]
+29.0 -3.8 12 +26 +26 жарко 1008.6 958.1 +32.0
21 18.02 СВ 4 1200 м пыль 9/0
[Cs]
+25.5 -5.3 13 +23 +23 комфорт 1010.3 959.8
03 19.02 СВ 4 2000 м пыль 9/0
[Cs]
+19.8 -1.5 24 +20 +20 1009.6 959.3

 

Местоположение метеостанции Zinder (Нигер): широта 13.78 долгота 8.98 высота над уровнем моря 453 м.

В архиве по умолчанию представлена погода в Zinder за последнюю неделю. Архивные данные за месяц целиком и за предыдущие месяцы, начиная с января 2011 года, Вы можете получить, выбрав интересующий диапазон дат из раскрывающегося списка и нажав кнопку "Ввод!".

Внимание! Время в таблицах - всемирное. Для получения местного времени необходимо прибавить поправку, которая в Zinder равна 1 ч.

Смотрите также архив погоды в соседних городах и на ближайших метеорологических станциях:

Погода в Magaria (Нигер) (89 км)
Погода в Goure (Нигер) (144 км)
Погода в Cano (Нигерия) (199 км)
Погода в Maradi (Нигер) (208 км)
Погода в Maine-Soroa (Нигер) (330 км)
Погода в Agadez (Нигер) (371 км)
Погода в Birni-Nkonni (Нигер) (403 км)
Погода в Diffa (Нигер) (413 км)
Погода в Tahoua (Нигер) (421 км)
Погода в Nguigmi (Нигер) (450 км)

Пояснения к столбцам:

Ветер - указаны скорость ветра в м/с - средняя за 10 мин, порывы в срок и между сроками (в фигурных скобках) и направление, откуда дует ветер: С - северный, СВ - северо-восточный, В - восточный, ЮВ - юго-восточный, Ю - южный, ЮЗ - юго-западный, З - западный, СЗ - северо-западный.
Видимость - горизонтальная дальность видимости в метрах или километрах. При видимости от 1 до 10 км при отсутствии осадков обычно наблюдается дымка, при ухудшении видимости до 1 км и менее - туман. В сухую погоду видимость может ухудшаться дымом, пылью или мглою.
Явления - указаны атмосферные явления, наблюдавшиеся в срок или в последний час перед сроком; фигурными скобками обозначены явления, наблюдавшиеся между сроками (за 1-3 часа до срока); квадратными скобками обозначены град или гололедные отложения с указанием их диаметра в мм.
Облачность - указаны через наклонную черту общая и нижняя облачность в баллах и высота нижней границы облаков в метрах; квадратными скобками обозначены формы облаков: Ci - перистые, Cs - перисто-слоистые, Cc - перисто-кучевые, Ac - высококучевые, As - высокослоистые, Sc - слоисто-кучевые, Ns - слоисто-дождевые, Cu - кучевые, Cb - кучево-дождевые. Подробнее классификацию облаков см. в Атласе облаков (PDF).
T - Температура воздуха - температура, измеренная на высоте 2 м над землей.
Td - Температура точки росы - температура, при понижении до которой содержащийся в воздухе водяной пар достигнет насыщения.
f - Относительная влажность воздуха - влажноcть воздуха, измеренная на высоте 2 м над землей.
Te - Эффективная температура - температура, которую ощущает одетый по сезону человек в тени. Характеристика душности погоды. При расчете учитывается влияние влажности воздуха и скорости ветра на теплоощущения человека.
Tes - Эффективная температура на солнце - температура, которую ощущает человек, с поправкой на солнечный нагрев. Характеристика знойности погоды. Зависит от высоты солнца над горизонтом, облачности и скорости ветра. Ночью, в пасмурную погоду, а также при ветре 12 м/с и более поправка равна нулю.
P - Атмосферное давление - приведенное к уровню моря атмосферное давление.
Po - Атмосферное давление - измеренное на уровне метеостанции атмосферное давление.
Tmin - Минимальная температура - минимум температуры воздуха на высоте 2 м над землей.
Tmax - Максимальная температура - максимум температуры воздуха на высоте 2 м над землей.
R - Количество осадков - Количество выпавших осадков за период времени, мм. При наведении курсора мыши на число - период времени, за который выпало указанное количество осадков.
R24 - Количество осадков - Количество выпавших осадков за 24 часа, мм.
S - Снежный покров - Высота снежного покрова, см. При наведении курсора мыши на число - состояние снежного покрова и степень покрытия местности в баллах.